SCP
1 1 2 2 2 2 2 2 2 2 2 2 2 1 1 1 1 1 1 1 1 1 1 1 1 1 1 1 1 1 1 1 0 0 0 0 0 0 0 0 0 0 0
1 1 1 2 2 2 2 2 2 2 2 2 2 1 1 1 1 1 1 1 1 1 1 1 1 1 1 1 1 1 1 0 0 0 0 0 0 0 0 0 0 0 0
1 1 1 1 1 1 2 2 2 2 2 1 1 1 1 1 1 1 1 1 1 1 1 1 1 1 1 1 1 1 1 0 0 0 0 0 0 0 0 0 0 0 0
1 1 1 1 1 1 1 1 1 1 1 1 1 1 1 1 1 1 1 1 1 1 0 1 1 1 1 1 1 1 0 0 0 0 0 0 0 0 0 0 0 0 0
1 1 1 1 1 1 1 1 1 1 1 1 1 1 1 1 1 1 1 0 0 0 0 0 0 0 1 1 1 0 0 0 0 0 0 0 0 0 0 0 0 0 0
1 1 1 1 1 1 1 1 1 1 1 1 1 1 1 1 0 0 0 0 0 0 0 0 0 0 0 0 0 0 0 0 0 0 0 0 0 0 0 0 0 0 0
0 0 0 0 0 1 1 1 1 1 1 1 1 1 0 0 0 0 0 0 0 0 0 0 0 0 0 0 0 0 0 0 0 0 0 0 0 0 0 0 0 0 0
0 0 0 0 0 0 0 1 1 1 0 0 0 0 0 0 0 0 0 0 0 0 0 0 0 0 0 0 0 0 0 0 0 0 0 0 0 0 0 0 0 0 0
0 0 0 0 0 0 0 0 0 0 0 0 0 0 0 0 0 0 0 0 0 0 0 0 0 0 0 0 0 0 0 0 0 0 0 0 0 0 0 0 0 0 0
0 0 0 0 0 0 0 0 0 0 0 0 0 0 0 0 0 0 0 0 0 0 0 0 0 0 0 0 0 0 0 0 0 0 0 0 0 0 0 0 0 0 0
0 0 0 0 0 0 0 0 0 0 0 0 0 0 0 0 0 0 0 0 0 0 0 0 0 0 0 0 0 0 0 0 0 0 0 0 0 0 0 0 0 0 0
0 0 0 0 0 0 0 0 0 0 0 0 0 0 0 0 0 0 0 0 0 0 0 0 0 0 0 0 0 0 0 0 0 0 0 0 0 0 0 0 0 0 0
0 0 0 0 0 0 0 0 0 0 0 0 0 0 0 0 0 0 0 0 0 0 0 0 0 0 0 0 0 0 0 0 0 0 0 0 0 0 0 0 0 0 0
0 0 0 0 0 0 0 0 0 0 0 0 0 0 0 0 0 0 0 0 0 0 0 0 0 0 0 0 0 0 0 0 0 0 0 0 0 0 0 0 0 0 0
0 0 0 0 0 0 0 0 0 0 0 0 0 0 0 0 0 0 0 0 0 0 0 0 0 0 0 0 0 0 0 0 0 0 0 0 0 0 0 0 0 0 0
0 0 0 0 0 0 0 0 0 0 0 0 0 0 0 0 0 0 0 0 0 0 0 0 0 0 0 0 0 0 0 0 0 0 0 0 0 0 0 0 0 0 0
0 0 0 0 0 0 0 0 0 0 0 0 0 0 0 0 0 0 0 0 0 0 0 0 0 0 0 0 0 0 0 0 0 0 0 0 0 0 0 0 0 0 0
0 0 0 0 0 0 0 0 0 0 0 0 0 0 0 0 0 0 0 0 0 0 0 0 0 0 0 0 0 0 0 0 0 0 0 0 0 0 0 0 0 0 0
0 0 0 0 0 0 0 0 0 0 0 0 0 0 0 0 0 0 0 0 0 0 0 0 0 0 0 0 0 0 0 0 0 0 0 0 0 0 0 0 0 0 0
0 0 0 0 0 0 0 0 0 0 0 0 0 0 0 0 0 0 0 0 0 0 0 0 0 0 0 0 0 0 0 0 0 0 0 0 0 0 0 0 0 0 0
0 0 0 0 0 0 0 0 0 0 0 0 0 0 0 0 0 0 0 0 0 0 0 0 0 0 0 0 0 0 0 0 0 0 0 0 0 0 0 0 0 0 0
0 0 0 0 0 0 0 0 0 0 0 0 0 0 0 0 0 0 0 0 0 0 0 0 0 0 0 0 0 0 0 0 0 0 0 0 0 0 0 0 0 0 0
0 0 0 0 0 0 0 0 0 0 0 0 0 0 0 0 0 0 0 0 0 0 0 0 0 0 0 0 0 0 0 0 0 0 0 0 0 0 0 0 0 0 0
0 0 0 0 0 0 0 0 0 0 0 0 0 0 0 0 0 0 0 0 0 0 0 0 0 0 0 0 0 0 0 0 0 0 0 0 0 0 0 0 0 0 0
0 0 0 0 0 0 0 0 0 0 0 0 0 0 0 0 0 0 0 0 0 0 0 0 0 0 0 0 0 0 0 0 0 0 0 0 0 0 0 0 0 0 0
0 0 0 0 0 0 0 0 0 0 0 0 0 0 0 0 0 0 0 0 0 0 0 0 0 0 0 0 0 0 0 0 0 0 0 0 0 0 0 0 0 0 0
Wind_Speed
8 9 8 8 7 7 6 5 4 3 3 2 2 2 2 2 3 3 4 4 4 3 1 1 1 1 1 1 2 2 2 2 3 3 3 3 4 4 3 3 4 5 5
9 10 9 9 8 8 7 6 5 4 3 1 1 2 3 3 3 3 5 5 4 3 2 2 1 1 1 1 1 1 2 2 2 2 3 3 2 2 3 3 4 5 4
10 9 9 8 8 8 8 6 5 4 4 3 2 3 3 3 2 3 3 4 5 4 4 4 2 2 2 1 1 1 2 2 2 1 1 2 3 3 2 4 4 4 4
9 8 8 8 8 8 7 7 6 6 5 4 3 4 4 3 2 3 4 5 6 6 5 4 3 3 3 2 1 1 1 2 2 1 1 2 3 4 3 2 3 4 4
8 9 9 9 9 8 7 7 7 7 6 5 4 4 4 4 3 5 6 7 7 7 7 6 5 4 4 3 3 2 2 1 1 1 1 2 2 2 3 4 3 2 2
8 9 9 8 8 9 9 8 8 9 8 7 7 7 6 6 7 7 6 5 5 6 8 7 5 5 5 5 4 3 4 3 4 3 3 2 1 1 2 3 4 4 2
8 9 9 9 10 10 10 9 9 9 8 8 8 7 7 7 7 6 6 6 5 5 7 6 6 6 6 5 5 5 5 5 5 5 4 4 3 2 2 3 3 4 3
9 10 10 9 9 10 10 10 9 9 8 8 8 7 7 6 6 7 6 6 5 5 6 6 6 6 6 6 6 6 6 6 6 7 6 5 5 4 3 2 2 3 3
10 10 9 9 10 10 9 10 10 10 9 9 9 8 9 8 8 8 7 6 5 5 6 6 6 7 7 6 6 6 7 7 7 7 7 5 4 4 3 3 2 2 3
9 9 9 9 9 10 10 10 10 10 9 9 9 9 9 8 8 8 8 7 7 6 7 7 7 7 7 7 7 7 7 8 7 6 7 6 5 4 4 3 3 3 3
9 8 8 9 9 9 9 10 10 10 10 10 10 10 9 9 9 8 8 7 6 6 7 6 7 7 7 7 6 7 8 8 7 7 7 6 6 4 4 4 5 5 4
9 9 9 9 9 10 10 10 9 10 9 9 9 9 9 9 9 8 8 6 6 6 6 6 7 7 7 6 6 7 7 7 7 6 6 6 5 6 5 4 4 4 3
9 9 9 9 9 9 9 9 9 9 9 9 9 9 9 8 8 7 6 6 6 6 6 6 6 6 6 6 6 6 7 7 6 6 6 6 6 6 5 5 4 3 3
9 9 9 9 9 8 8 9 9 8 8 9 9 9 8 7 7 6 6 6 6 6 5 5 6 7 7 7 6 6 6 6 5 5 6 6 6 6 5 5 5 4 3
10 9 9 9 8 8 8 8 8 8 7 8 9 8 7 7 6 6 6 5 5 6 5 6 6 7 7 8 7 4 5 5 5 5 6 6 7 7 5 5 4 5 4
10 10 10 9 8 8 8 8 7 7 7 7 8 7 7 6 6 5 5 5 6 6 6 7 8 8 8 9 10 8 4 4 4 4 4 5 4 4 3 3 3 3 4
10 10 10 9 8 7 7 7 6 6 6 7 7 6 6 5 5 6 6 6 5 6 7 7 8 8 8 10 11 10 4 3 3 3 3 4 6 5 4 2 1 1 2
11 10 9 9 8 7 6 6 6 6 6 6 6 6 6 6 5 5 6 5 5 5 5 6 7 6 7 10 11 10 3 3 4 5 5 6 6 7 7 4 3 2 1
10 9 9 8 7 6 6 6 5 5 6 6 6 6 5 5 5 5 4 4 3 4 4 5 6 6 6 8 9 9 2 3 4 6 7 6 6 8 9 5 4 4 3
10 9 8 8 7 6 5 6 6 6 6 6 6 5 4 4 4 4 3 3 3 3 4 5 5 6 6 7 9 9 3 3 4 5 6 9 7 7 8 5 4 4 4
11 9 8 7 7 7 6 6 6 6 6 5 6 5 4 4 4 4 3 2 3 4 4 6 5 5 5 5 8 9 5 4 3 3 4 4 4 5 6 5 3 3 5
11 9 8 8 6 6 6 6 6 5 5 5 5 5 3 4 5 4 3 3 3 3 4 4 5 4 4 5 5 6 6 5 4 3 3 2 2 4 5 4 5 8 7
10 9 9 8 7 6 5 6 6 5 5 5 5 4 4 4 3 3 3 2 2 2 3 4 4 4 3 3 3 4 5 5 3 3 2 1 3 4 4 4 7 7 4
10 8 9 9 7 6 5 6 5 5 5 5 4 4 4 4 4 4 4 5 5 4 3 4 4 4 4 3 3 2 1 2 2 2 3 5 6 6 5 4 4 2 1
8 8 8 8 8 7 6 6 5 5 4 4 3 3 4 4 5 6 6 6 6 5 5 5 4 4 5 3 4 4 4 5 5 5 3 2 2 1 0 0 1 1 1
9 8 8 8 8 7 7 6 5 4 3 2 3 3 3 3 4 5 6 9 7 8 9 9 6 5 5 2 3 5 6 7 7 5 3 2 2 2 2 2 2 2 3
Wind_Direction
67 57 53 53 46 51 54 60 56 57 79 108 158 178 134 95 80 70 66 55 35 29 30 74 101 110 126 148 129 129 136 141 131 122 109 89 78 80 75 77 84 82 80
64 54 48 46 40 46 47 51 49 43 43 56 147 140 111 87 83 72 61 52 47 33 31 23 54 99 108 77 100 129 143 177 179 156 147 143 119 83 75 73 80 82 81
69 59 53 43 43 40 38 40 48 45 49 45 67 98 96 86 70 64 61 45 42 43 48 41 34 55 84 90 108 152 170 186 200 148 146 160 145 119 76 69 68 72 69
72 64 56 48 44 42 40 40 46 49 50 60 78 102 106 107 89 78 68 60 50 47 44 41 43 52 57 63 53 41 167 164 167 131 85 83 108 141 138 109 89 87 80
78 69 59 52 45 43 46 43 47 50 47 54 70 86 93 97 91 81 74 66 55 48 46 41 46 52 55 57 52 48 53 92 108 106 115 107 111 114 138 142 147 123 106
85 74 66 60 53 47 47 49 52 49 46 50 57 72 83 90 87 80 79 69 61 51 46 42 45 52 50 49 52 48 59 57 61 59 54 68 89 118 114 132 149 138 127
89 76 64 56 52 47 44 46 52 53 53 56 59 66 78 85 83 82 80 75 64 59 50 46 47 52 53 52 57 60 60 59 61 57 50 47 45 46 69 116 133 132 136
85 74 65 57 56 54 50 50 56 55 56 62 65 67 70 75 78 77 80 82 77 71 68 63 58 56 58 63 63 66 66 65 63 58 50 50 42 40 52 74 112 132 136
83 73 65 59 57 55 55 57 60 57 55 61 67 70 73 79 83 84 80 82 86 86 76 73 72 68 67 68 74 72 65 63 61 58 52 49 42 36 40 50 70 102 129
90 82 71 65 62 62 58 59 62 63 60 63 67 72 74 78 82 82 79 78 77 79 78 72 70 70 69 68 72 76 71 70 64 61 54 47 37 32 30 32 33 38 82
95 88 82 76 72 70 67 65 64 64 65 67 69 70 70 72 76 79 79 78 76 78 79 79 76 74 73 70 73 79 75 72 66 64 62 56 44 36 37 35 41 41 52
99 93 86 78 73 71 71 71 70 71 73 76 77 75 72 72 74 75 73 74 74 76 80 79 78 77 75 73 73 78 79 77 72 68 65 59 54 45 42 41 50 51 49
102 95 89 83 78 75 75 76 74 75 77 79 80 78 75 74 74 75 76 74 73 74 78 82 83 79 72 71 72 74 77 75 72 68 65 60 53 46 39 41 40 36 48
110 102 95 88 85 82 80 81 79 80 82 82 81 79 76 76 77 77 75 76 78 79 78 80 81 82 74 63 66 74 78 80 78 73 67 60 54 41 28 45 36 31 21
113 107 102 99 96 92 88 87 87 82 82 87 87 83 81 79 79 79 77 78 81 85 83 82 78 74 68 49 41 57 84 83 84 82 81 77 76 64 46 50 32 25 19
120 116 111 107 103 101 99 96 94 93 91 89 89 90 88 86 85 85 83 79 77 75 73 72 72 66 59 41 37 35 50 72 81 89 98 111 99 90 85 68 47 33 35
124 120 115 110 107 103 102 103 104 104 101 97 95 96 95 95 95 93 87 81 79 79 80 81 80 75 55 37 31 28 17 63 74 73 68 75 75 50 32 17 303 269 239
125 122 119 116 114 113 112 109 106 104 102 104 101 99 96 89 84 84 83 79 79 83 89 91 92 85 60 37 26 8 11 71 73 66 64 68 61 35 10 350 12 44 75
123 121 120 120 121 122 125 120 110 106 104 102 99 96 93 92 90 87 86 90 92 94 100 101 101 94 69 37 23 5 9 74 77 72 58 63 66 33 13 3 21 34 23
121 122 122 125 122 120 116 110 109 105 100 97 98 94 86 84 89 93 92 94 101 106 105 99 97 92 78 41 27 9 33 66 79 91 85 66 55 35 20 8 17 20 358
125 125 126 123 120 119 111 104 102 99 94 92 94 95 95 95 93 90 92 94 88 91 93 96 96 90 88 68 39 31 30 26 56 89 91 74 42 25 8 354 1 353 319
130 131 128 121 122 120 113 107 102 106 107 100 96 94 89 87 88 85 86 92 96 106 110 110 110 104 95 70 51 36 36 21 36 51 71 86 14 345 333 330 328 327 321
136 135 130 125 122 119 117 114 113 112 103 97 96 93 85 75 81 90 96 99 95 98 115 119 121 120 108 87 44 13 10 16 21 27 10 306 287 305 291 277 298 312 318
134 132 129 128 127 128 124 116 114 105 101 102 104 109 105 92 70 50 49 55 45 43 57 76 92 101 89 62 31 4 18 358 10 332 287 258 265 271 281 282 270 264 311
131 133 133 133 130 130 127 122 114 110 112 117 121 115 107 101 83 70 50 63 57 49 46 45 59 77 79 50 22 12 16 7 10 334 299 259 244 231 220 347 336 331 20
136 136 135 132 131 130 123 122 124 125 121 117 124 127 127 125 121 117 95 62 81 80 72 64 65 77 91 106 24 8 349 339 342 333 317 6 23 23 28 13 4 25 35